Time,TemperatureF,DewpointF,PressureIn,WindDirection,WindDirectionDegrees,WindSpeedMPH,WindSpeedGustMPH,Humidity,HourlyPrecipIn,Conditions,Clouds,dailyrainin,SoftwareType,DateUTC
2013-01-04 00:00:00,19.8,15.2,30.35,WSW,243,4.0,4.0,82,0.00,,,0.00,Wunderground v.1.15,2013-01-04 05:00:00,
2013-01-04 00:03:00,19.6,15.0,30.35,WSW,245,4.0,7.0,82,0.00,,,0.00,Wunderground v.1.15,2013-01-04 05:03:00,
2013-01-04 00:05:00,19.5,14.9,30.35,WSW,257,4.0,7.0,82,0.00,,,0.00,Wunderground v.1.15,2013-01-04 05:05:00,
2013-01-04 00:06:00,19.5,14.9,30.35,WSW,242,4.0,7.0,82,0.00,,,0.00,Wunderground v.1.15,2013-01-04 05:06:00,
2013-01-04 00:11:00,19.3,15.0,30.35,SW,229,4.0,4.0,83,0.00,,,0.00,Wunderground v.1.15,2013-01-04 05:11:00,
2013-01-04 00:17:00,19.1,14.8,30.35,SW,224,4.0,5.0,83,0.00,,,0.00,Wunderground v.1.15,2013-01-04 05:17:00,
2013-01-04 00:23:00,19.0,14.7,30.35,WSW,245,4.0,6.0,83,0.00,,,0.00,Wunderground v.1.15,2013-01-04 05:23:00,
2013-01-04 00:28:00,18.8,14.5,30.35,WSW,238,5.0,6.0,83,0.00,,,0.00,Wunderground v.1.15,2013-01-04 05:28:00,
2013-01-04 00:34:00,18.8,14.8,30.34,WSW,250,5.0,10.0,84,0.00,,,0.00,Wunderground v.1.15,2013-01-04 05:34:00,
2013-01-04 00:40:00,18.9,14.9,30.34,SW,229,5.0,5.0,84,0.00,,,0.00,Wunderground v.1.15,2013-01-04 05:40:00,
2013-01-04 00:45:00,18.8,14.8,30.34,SW,228,5.0,10.0,84,0.00,,,0.00,Wunderground v.1.15,2013-01-04 05:45:00,
2013-01-04 00:51:00,18.6,14.3,30.34,SW,221,5.0,10.0,83,0.00,,,0.00,Wunderground v.1.15,2013-01-04 05:51:00,
2013-01-04 00:57:00,18.3,14.3,30.34,SSW,203,4.0,10.0,84,0.00,,,0.00,Wunderground v.1.15,2013-01-04 05:57:00,
2013-01-04 01:02:00,18.2,14.2,30.34,SW,217,5.0,6.0,84,0.00,,,0.00,Wunderground v.1.15,2013-01-04 06:02:00,
2013-01-04 01:08:00,18.0,14.3,30.34,SW,228,7.0,11.0,85,0.00,,,0.00,Wunderground v.1.15,2013-01-04 06:08:00,
2013-01-04 01:14:00,18.1,14.1,30.34,WSW,238,8.0,10.0,84,0.00,,,0.00,Wunderground v.1.15,2013-01-04 06:14:00,
2013-01-04 01:19:00,18.0,14.0,30.34,WSW,238,8.0,10.0,84,0.00,,,0.00,Wunderground v.1.15,2013-01-04 06:19:00,
2013-01-04 01:25:00,17.9,14.2,30.34,SW,219,8.0,9.0,85,0.00,,,0.00,Wunderground v.1.15,2013-01-04 06:25:00,
2013-01-04 01:31:00,17.8,13.8,30.34,SW,215,8.0,8.0,84,0.00,,,0.00,Wunderground v.1.15,2013-01-04 06:31:00,
2013-01-04 01:36:00,17.8,13.8,30.34,SSW,203,7.0,10.0,84,0.00,,,0.00,Wunderground v.1.15,2013-01-04 06:36:00,
2013-01-04 01:42:00,17.8,13.8,30.34,NW,312,7.0,8.0,84,0.00,,,0.00,Wunderground v.1.15,2013-01-04 06:42:00,
2013-01-04 01:48:00,17.7,14.0,30.34,SE,146,7.0,11.0,85,0.00,,,0.00,Wunderground v.1.15,2013-01-04 06:48:00,
2013-01-04 01:53:00,17.8,14.1,30.34,SW,219,8.0,9.0,85,0.00,,,0.00,Wunderground v.1.15,2013-01-04 06:53:00,
2013-01-04 01:59:00,17.8,14.1,30.34,SW,229,9.0,11.0,85,0.00,,,0.00,Wunderground v.1.15,2013-01-04 06:59:00,
2013-01-04 02:05:00,17.5,13.8,30.34,WSW,239,7.0,12.0,85,0.00,,,0.00,Wunderground v.1.15,2013-01-04 07:05:00,
2013-01-04 02:10:00,17.4,13.7,30.34,SSE,155,7.0,7.0,85,0.00,,,0.00,Wunderground v.1.15,2013-01-04 07:10:00,
2013-01-04 02:16:00,17.4,13.7,30.34,SW,220,6.0,8.0,85,0.00,,,0.00,Wunderground v.1.15,2013-01-04 07:16:00,
2013-01-04 02:21:00,17.4,13.7,30.34,SW,228,7.0,9.0,85,0.00,,,0.00,Wunderground v.1.15,2013-01-04 07:21:00,
2013-01-04 02:27:00,17.5,13.8,30.34,WSW,250,7.0,9.0,85,0.00,,,0.00,Wunderground v.1.15,2013-01-04 07:27:00,
2013-01-04 02:33:00,17.6,13.9,30.35,SW,225,7.0,12.0,85,0.00,,,0.00,Wunderground v.1.15,2013-01-04 07:33:00,
2013-01-04 02:38:00,17.7,14.0,30.34,WNW,295,8.0,12.0,85,0.00,,,0.00,Wunderground v.1.15,2013-01-04 07:38:00,
2013-01-04 02:44:00,17.7,13.7,30.35,WSW,238,7.0,12.0,84,0.00,,,0.00,Wunderground v.1.15,2013-01-04 07:44:00,
2013-01-04 02:50:00,17.5,13.5,30.35,SW,226,7.0,7.0,84,0.00,,,0.00,Wunderground v.1.15,2013-01-04 07:50:00,
2013-01-04 02:55:00,17.4,13.7,30.35,SW,231,7.0,12.0,85,0.00,,,0.00,Wunderground v.1.15,2013-01-04 07:55:00,
2013-01-04 03:00:00,17.5,13.8,30.36,SW,229,8.0,8.0,85,0.00,,,0.00,Wunderground v.1.15,2013-01-04 08:00:00,
2013-01-04 03:06:00,17.4,13.4,30.36,SW,215,7.0,9.0,84,0.00,,,0.00,Wunderground v.1.15,2013-01-04 08:06:00,
2013-01-04 03:11:00,17.4,13.7,30.35,ESE,123,6.0,6.0,85,0.00,,,0.00,Wunderground v.1.15,2013-01-04 08:11:00,
2013-01-04 03:17:00,17.2,13.2,30.35,SW,214,5.0,10.0,84,0.00,,,0.00,Wunderground v.1.15,2013-01-04 08:17:00,
2013-01-04 03:23:00,17.0,13.0,30.35,SW,231,5.0,9.0,84,0.00,,,0.00,Wunderground v.1.15,2013-01-04 08:23:00,
2013-01-04 03:28:00,16.8,12.8,30.35,SW,231,5.0,9.0,84,0.00,,,0.00,Wunderground v.1.15,2013-01-04 08:28:00,
2013-01-04 03:34:00,16.5,12.8,30.35,West,266,5.0,14.0,85,0.00,,,0.00,Wunderground v.1.15,2013-01-04 08:34:00,
2013-01-04 03:40:00,16.4,12.7,30.35,SW,228,5.0,14.0,85,0.00,,,0.00,Wunderground v.1.15,2013-01-04 08:40:00,
2013-01-04 03:45:00,16.2,12.5,30.35,WSW,256,5.0,14.0,85,0.00,,,0.00,Wunderground v.1.15,2013-01-04 08:45:00,
2013-01-04 03:51:00,16.0,12.6,30.35,WSW,244,6.0,14.0,86,0.00,,,0.00,Wunderground v.1.15,2013-01-04 08:51:00,
2013-01-04 03:57:00,15.9,12.2,30.34,WSW,253,6.0,14.0,85,0.00,,,0.00,Wunderground v.1.15,2013-01-04 08:57:00,
2013-01-04 04:02:00,15.6,11.9,30.34,WSW,248,5.0,8.0,85,0.00,,,0.00,Wunderground v.1.15,2013-01-04 09:02:00,
2013-01-04 04:08:00,15.5,12.1,30.34,SSW,211,6.0,9.0,86,0.00,,,0.00,Wunderground v.1.15,2013-01-04 09:08:00,
2013-01-04 04:14:00,15.5,12.1,30.34,SW,235,7.0,9.0,86,0.00,,,0.00,Wunderground v.1.15,2013-01-04 09:14:00,
2013-01-04 04:20:00,15.4,12.0,30.34,WSW,238,7.0,9.0,86,0.00,,,0.00,Wunderground v.1.15,2013-01-04 09:20:00,
2013-01-04 04:25:00,15.3,11.9,30.34,SW,217,6.0,9.0,86,0.00,,,0.00,Wunderground v.1.15,2013-01-04 09:25:00,
2013-01-04 04:31:00,15.2,11.8,30.34,WSW,250,6.0,12.0,86,0.00,,,0.00,Wunderground v.1.15,2013-01-04 09:31:00,
2013-01-04 04:37:00,15.1,11.7,30.34,WSW,245,7.0,12.0,86,0.00,,,0.00,Wunderground v.1.15,2013-01-04 09:37:00,
2013-01-04 04:42:00,15.0,11.8,30.34,South,174,7.0,12.0,87,0.00,,,0.00,Wunderground v.1.15,2013-01-04 09:42:00,
2013-01-04 04:47:00,14.8,11.6,30.34,SSW,195,6.0,12.0,87,0.00,,,0.00,Wunderground v.1.15,2013-01-04 09:47:00,
2013-01-04 04:53:00,14.8,11.4,30.34,West,262,6.0,12.0,86,0.00,,,0.00,Wunderground v.1.15,2013-01-04 09:53:00,
2013-01-04 04:58:00,14.7,11.5,30.34,SSW,211,7.0,12.0,87,0.00,,,0.00,Wunderground v.1.15,2013-01-04 09:58:00,
2013-01-04 05:04:00,14.7,11.5,30.33,WSW,245,7.0,10.0,87,0.00,,,0.00,Wunderground v.1.15,2013-01-04 10:04:00,
2013-01-04 05:10:00,14.7,11.5,30.33,SW,214,7.0,7.0,87,0.00,,,0.00,Wunderground v.1.15,2013-01-04 10:10:00,
2013-01-04 05:16:00,14.6,11.2,30.34,West,269,6.0,7.0,86,0.00,,,0.00,Wunderground v.1.15,2013-01-04 10:16:00,
2013-01-04 05:21:00,14.4,11.0,30.34,SW,231,5.0,7.0,86,0.00,,,0.00,Wunderground v.1.15,2013-01-04 10:21:00,
2013-01-04 05:27:00,14.5,11.3,30.34,SW,226,7.0,11.0,87,0.00,,,0.00,Wunderground v.1.15,2013-01-04 10:27:00,
2013-01-04 05:33:00,14.5,11.1,30.33,SW,232,7.0,11.0,86,0.00,,,0.00,Wunderground v.1.15,2013-01-04 10:33:00,
2013-01-04 05:39:00,14.4,11.2,30.33,SW,229,7.0,11.0,87,0.00,,,0.00,Wunderground v.1.15,2013-01-04 10:39:00,
2013-01-04 05:44:00,14.3,10.9,30.33,WSW,242,8.0,11.0,86,0.00,,,0.00,Wunderground v.1.15,2013-01-04 10:44:00,
2013-01-04 05:50:00,14.3,11.1,30.33,SW,217,8.0,11.0,87,0.00,,,0.00,Wunderground v.1.15,2013-01-04 10:50:00,
2013-01-04 05:56:00,14.3,11.1,30.33,SW,224,8.0,11.0,87,0.00,,,0.00,Wunderground v.1.15,2013-01-04 10:56:00,
2013-01-04 06:02:00,14.1,10.9,30.34,SW,229,8.0,12.0,87,0.00,,,0.00,Wunderground v.1.15,2013-01-04 11:02:00,
2013-01-04 06:07:00,14.1,10.9,30.34,WSW,238,8.0,12.0,87,0.00,,,0.00,Wunderground v.1.15,2013-01-04 11:07:00,
2013-01-04 06:12:00,14.0,10.8,30.34,SW,225,9.0,12.0,87,0.00,,,0.00,Wunderground v.1.15,2013-01-04 11:12:00,
2013-01-04 06:18:00,14.0,10.8,30.34,WSW,248,9.0,12.0,87,0.00,,,0.00,Wunderground v.1.15,2013-01-04 11:18:00,
2013-01-04 06:24:00,14.1,10.9,30.33,SW,217,9.0,12.0,87,0.00,,,0.00,Wunderground v.1.15,2013-01-04 11:24:00,
2013-01-04 06:29:00,14.0,10.8,30.34,SW,224,9.0,12.0,87,0.00,,,0.00,Wunderground v.1.15,2013-01-04 11:29:00,
2013-01-04 06:34:00,14.0,10.8,30.34,WSW,255,9.0,12.0,87,0.00,,,0.00,Wunderground v.1.15,2013-01-04 11:34:00,
2013-01-04 06:40:00,14.0,10.8,30.34,SW,235,9.0,12.0,87,0.00,,,0.00,Wunderground v.1.15,2013-01-04 11:40:00,
2013-01-04 06:46:00,14.0,10.8,30.34,SW,215,9.0,12.0,87,0.00,,,0.00,Wunderground v.1.15,2013-01-04 11:46:00,
2013-01-04 06:52:00,13.9,10.7,30.34,WSW,253,9.0,12.0,87,0.00,,,0.00,Wunderground v.1.15,2013-01-04 11:52:00,
2013-01-04 06:57:00,13.9,10.7,30.34,SW,220,9.0,12.0,87,0.00,,,0.00,Wunderground v.1.15,2013-01-04 11:57:00,
2013-01-04 07:03:00,13.9,10.7,30.34,SW,232,9.0,11.0,87,0.00,,,0.00,Wunderground v.1.15,2013-01-04 12:03:00,
2013-01-04 07:09:00,13.8,10.6,30.34,SW,222,9.0,11.0,87,0.00,,,0.00,Wunderground v.1.15,2013-01-04 12:09:00,
2013-01-04 07:15:00,13.7,10.5,30.34,SW,231,8.0,11.0,87,0.00,,,0.00,Wunderground v.1.15,2013-01-04 12:15:00,
2013-01-04 07:20:00,13.6,10.5,30.34,SW,226,8.0,8.0,87,0.00,,,0.00,Wunderground v.1.15,2013-01-04 12:20:00,
2013-01-04 07:26:00,13.5,10.4,30.34,SSE,159,7.0,9.0,87,0.00,,,0.00,Wunderground v.1.15,2013-01-04 12:26:00,
2013-01-04 07:32:00,13.4,10.3,30.34,SW,226,8.0,15.0,87,0.00,,,0.00,Wunderground v.1.15,2013-01-04 12:32:00,
2013-01-04 07:37:00,13.4,10.3,30.34,WSW,238,8.0,15.0,87,0.00,,,0.00,Wunderground v.1.15,2013-01-04 12:37:00,
2013-01-04 07:43:00,13.3,10.4,30.34,SSW,202,7.0,15.0,88,0.00,,,0.00,Wunderground v.1.15,2013-01-04 12:43:00,
2013-01-04 07:49:00,13.3,10.4,30.34,SW,214,8.0,15.0,88,0.00,,,0.00,Wunderground v.1.15,2013-01-04 12:49:00,
2013-01-04 07:55:00,13.2,10.1,30.34,WSW,238,8.0,15.0,87,0.00,,,0.00,Wunderground v.1.15,2013-01-04 12:55:00,
2013-01-04 08:00:00,13.2,10.1,30.35,WSW,240,8.0,10.0,87,0.00,,,0.00,Wunderground v.1.15,2013-01-04 13:00:00,
2013-01-04 08:05:00,13.2,10.1,30.35,West,271,8.0,10.0,87,0.00,,,0.00,Wunderground v.1.15,2013-01-04 13:05:00,
2013-01-04 08:11:00,13.0,9.9,30.35,SSW,205,8.0,8.0,87,0.00,,,0.00,Wunderground v.1.15,2013-01-04 13:11:00,
2013-01-04 08:17:00,12.9,9.8,30.35,SW,235,8.0,11.0,87,0.00,,,0.00,Wunderground v.1.15,2013-01-04 13:17:00,
2013-01-04 08:22:00,12.9,9.8,30.36,WSW,238,8.0,8.0,87,0.00,,,0.00,Wunderground v.1.15,2013-01-04 13:22:00,
2013-01-04 08:28:00,13.0,9.6,30.36,SW,235,7.0,12.0,86,0.00,,,0.00,Wunderground v.1.15,2013-01-04 13:28:00,
2013-01-04 08:34:00,13.2,9.8,30.36,SW,224,8.0,13.0,86,0.00,,,0.00,Wunderground v.1.15,2013-01-04 13:34:00,
2013-01-04 08:40:00,13.3,9.9,30.36,SW,233,9.0,13.0,86,0.00,,,0.00,Wunderground v.1.15,2013-01-04 13:40:00,
2013-01-04 08:45:00,13.4,10.0,30.36,SW,221,8.0,13.0,86,0.00,,,0.00,Wunderground v.1.15,2013-01-04 13:45:00,
2013-01-04 08:51:00,13.5,10.1,30.36,SW,227,9.0,13.0,86,0.00,,,0.00,Wunderground v.1.15,2013-01-04 13:51:00,
2013-01-04 08:57:00,13.7,10.3,30.36,SW,224,9.0,15.0,86,0.00,,,0.00,Wunderground v.1.15,2013-01-04 13:57:00,
2013-01-04 09:03:00,13.9,10.2,30.35,WSW,238,11.0,13.0,85,0.00,,,0.00,Wunderground v.1.15,2013-01-04 14:03:00,
2013-01-04 09:08:00,14.0,10.3,30.36,SSW,210,10.0,13.0,85,0.00,,,0.00,Wunderground v.1.15,2013-01-04 14:08:00,
2013-01-04 09:14:00,14.2,10.3,30.35,SW,228,9.0,13.0,84,0.00,,,0.00,Wunderground v.1.15,2013-01-04 14:14:00,
2013-01-04 09:19:00,14.4,10.4,30.36,WSW,242,10.0,13.0,84,0.00,,,0.00,Wunderground v.1.15,2013-01-04 14:19:00,
2013-01-04 09:25:00,14.6,10.4,30.35,SSW,212,11.0,13.0,83,0.00,,,0.00,Wunderground v.1.15,2013-01-04 14:25:00,
2013-01-04 09:31:00,14.8,10.6,30.35,SSW,212,11.0,15.0,83,0.00,,,0.00,Wunderground v.1.15,2013-01-04 14:31:00,
2013-01-04 09:36:00,14.9,10.4,30.35,SW,235,12.0,16.0,82,0.00,,,0.00,Wunderground v.1.15,2013-01-04 14:36:00,
2013-01-04 09:42:00,15.1,10.3,30.35,SW,225,12.0,16.0,81,0.00,,,0.00,Wunderground v.1.15,2013-01-04 14:42:00,
2013-01-04 09:48:00,15.4,10.6,30.35,SW,218,12.0,16.0,81,0.00,,,0.00,Wunderground v.1.15,2013-01-04 14:48:00,
2013-01-04 09:53:00,15.6,10.5,30.35,WSW,243,11.0,19.0,80,0.00,,,0.00,Wunderground v.1.15,2013-01-04 14:53:00,
2013-01-04 09:59:00,15.9,10.8,30.35,SW,229,11.0,19.0,80,0.00,,,0.00,Wunderground v.1.15,2013-01-04 14:59:00,
2013-01-04 10:05:00,16.3,10.9,30.35,SW,235,10.0,13.0,79,0.00,,,0.00,Wunderground v.1.15,2013-01-04 15:05:00,
2013-01-04 10:11:00,16.6,10.9,30.35,SW,229,11.0,14.0,78,0.00,,,0.00,Wunderground v.1.15,2013-01-04 15:11:00,
2013-01-04 10:16:00,16.8,11.1,30.35,SW,224,12.0,14.0,78,0.00,,,0.00,Wunderground v.1.15,2013-01-04 15:16:00,
2013-01-04 10:22:00,17.1,11.4,30.36,SW,219,12.0,18.0,78,0.00,,,0.00,Wunderground v.1.15,2013-01-04 15:22:00,
2013-01-04 10:28:00,17.3,11.3,30.36,WSW,242,12.0,18.0,77,0.00,,,0.00,Wunderground v.1.15,2013-01-04 15:28:00,
2013-01-04 10:33:00,17.7,11.7,30.36,SW,219,11.0,18.0,77,0.00,,,0.00,Wunderground v.1.15,2013-01-04 15:33:00,
2013-01-04 10:39:00,17.9,11.9,30.37,South,179,11.0,18.0,77,0.00,,,0.00,Wunderground v.1.15,2013-01-04 15:39:00,
2013-01-04 10:45:00,18.1,11.8,30.37,SW,215,11.0,18.0,76,0.00,,,0.00,Wunderground v.1.15,2013-01-04 15:45:00,
2013-01-04 10:50:00,18.4,12.4,30.37,WSW,257,10.0,18.0,77,0.00,,,0.00,Wunderground v.1.15,2013-01-04 15:50:00,
2013-01-04 10:56:00,18.4,12.1,30.37,SSE,168,11.0,18.0,76,0.00,,,0.00,Wunderground v.1.15,2013-01-04 15:56:00,
2013-01-04 11:02:00,18.5,12.2,30.37,SW,235,11.0,15.0,76,0.00,,,0.00,Wunderground v.1.15,2013-01-04 16:02:00,
2013-01-04 11:07:00,18.8,12.8,30.37,SW,235,10.0,16.0,77,0.00,,,0.00,Wunderground v.1.15,2013-01-04 16:07:00,
2013-01-04 11:13:00,19.0,12.7,30.38,South,183,9.0,12.0,76,0.00,,,0.00,Wunderground v.1.15,2013-01-04 16:13:00,
2013-01-04 11:18:00,19.2,12.9,30.38,SE,143,9.0,12.0,76,0.00,,,0.00,Wunderground v.1.15,2013-01-04 16:18:00,
2013-01-04 11:24:00,19.4,12.8,30.38,South,173,8.0,13.0,75,0.00,,,0.00,Wunderground v.1.15,2013-01-04 16:24:00,
2013-01-04 11:30:00,19.4,13.1,30.37,NE,39,9.0,9.0,76,0.00,,,0.00,Wunderground v.1.15,2013-01-04 16:30:00,
2013-01-04 11:36:00,19.4,12.8,30.38,WSW,248,9.0,22.0,75,0.00,,,0.00,Wunderground v.1.15,2013-01-04 16:36:00,
2013-01-04 11:41:00,19.3,13.0,30.37,SSW,204,12.0,12.0,76,0.00,,,0.00,Wunderground v.1.15,2013-01-04 16:41:00,
2013-01-04 11:47:00,19.6,13.3,30.37,South,186,10.0,22.0,76,0.00,,,0.00,Wunderground v.1.15,2013-01-04 16:47:00,
2013-01-04 11:53:00,19.6,13.3,30.36,SW,225,10.0,22.0,76,0.00,,,0.00,Wunderground v.1.15,2013-01-04 16:53:00,
2013-01-04 11:59:00,19.7,13.4,30.36,SW,229,10.0,22.0,76,0.00,,,0.00,Wunderground v.1.15,2013-01-04 16:59:00,
2013-01-04 12:04:00,19.8,13.5,30.36,South,184,10.0,16.0,76,0.00,,,0.00,Wunderground v.1.15,2013-01-04 17:04:00,
2013-01-04 12:10:00,19.9,13.6,30.35,SW,230,12.0,12.0,76,0.00,,,0.00,Wunderground v.1.15,2013-01-04 17:10:00,
2013-01-04 12:16:00,20.2,13.8,30.35,SW,224,12.0,14.0,76,0.00,,,0.00,Wunderground v.1.15,2013-01-04 17:16:00,
2013-01-04 12:21:00,20.4,14.0,30.35,WSW,244,11.0,14.0,76,0.00,,,0.00,Wunderground v.1.15,2013-01-04 17:21:00,
2013-01-04 12:27:00,20.3,13.6,30.35,WSW,240,12.0,17.0,75,0.00,,,0.00,Wunderground v.1.15,2013-01-04 17:27:00,
2013-01-04 12:33:00,20.4,14.0,30.35,NW,322,15.0,20.0,76,0.00,,,0.00,Wunderground v.1.15,2013-01-04 17:33:00,
2013-01-04 12:39:00,20.7,14.3,30.35,SW,236,12.0,20.0,76,0.00,,,0.00,Wunderground v.1.15,2013-01-04 17:39:00,
2013-01-04 12:44:00,20.8,14.1,30.35,SSW,205,12.0,20.0,75,0.00,,,0.00,Wunderground v.1.15,2013-01-04 17:44:00,
2013-01-04 12:50:00,20.8,14.4,30.34,SW,218,13.0,20.0,76,0.00,,,0.00,Wunderground v.1.15,2013-01-04 17:50:00,
2013-01-04 12:56:00,20.9,14.2,30.35,SW,215,13.0,20.0,75,0.00,,,0.00,Wunderground v.1.15,2013-01-04 17:56:00,
2013-01-04 13:02:00,21.2,14.8,30.34,NW,314,12.0,14.0,76,0.00,,,0.00,Wunderground v.1.15,2013-01-04 18:02:00,
2013-01-04 13:08:00,21.5,15.1,30.34,SW,225,11.0,15.0,76,0.00,,,0.00,Wunderground v.1.15,2013-01-04 18:08:00,
2013-01-04 13:13:00,21.5,15.1,30.34,SSW,208,13.0,19.0,76,0.00,,,0.00,Wunderground v.1.15,2013-01-04 18:13:00,
2013-01-04 13:19:00,21.9,15.5,30.33,SW,222,14.0,19.0,76,0.00,,,0.00,Wunderground v.1.15,2013-01-04 18:19:00,
2013-01-04 13:25:00,22.3,15.9,30.33,SW,215,12.0,15.0,76,0.00,,,0.00,Wunderground v.1.15,2013-01-04 18:25:00,
2013-01-04 13:31:00,22.6,16.2,30.33,WSW,248,12.0,13.0,76,0.00,,,0.00,Wunderground v.1.15,2013-01-04 18:31:00,
2013-01-04 13:37:00,22.9,16.2,30.33,SSW,212,12.0,23.0,75,0.00,,,0.00,Wunderground v.1.15,2013-01-04 18:37:00,
2013-01-04 13:43:00,23.0,16.6,30.33,WSW,245,14.0,23.0,76,0.00,,,0.00,Wunderground v.1.15,2013-01-04 18:43:00,
2013-01-04 13:48:00,23.2,16.8,30.32,South,186,14.0,23.0,76,0.00,,,0.00,Wunderground v.1.15,2013-01-04 18:48:00,
2013-01-04 13:54:00,23.4,16.9,30.32,SW,225,13.0,23.0,76,0.00,,,0.00,Wunderground v.1.15,2013-01-04 18:54:00,
2013-01-04 14:00:00,23.9,17.4,30.32,SSW,208,14.0,14.0,76,0.00,,,0.00,Wunderground v.1.15,2013-01-04 19:00:00,
2013-01-04 14:06:00,24.3,17.8,30.32,SSW,211,12.0,14.0,76,0.00,,,0.00,Wunderground v.1.15,2013-01-04 19:06:00,
2013-01-04 14:11:00,24.7,17.9,30.32,WSW,240,9.0,10.0,75,0.00,,,0.00,Wunderground v.1.15,2013-01-04 19:11:00,
2013-01-04 14:17:00,24.8,17.7,30.32,SSW,197,9.0,15.0,74,0.00,,,0.00,Wunderground v.1.15,2013-01-04 19:17:00,
2013-01-04 14:23:00,24.8,17.7,30.32,West,262,11.0,12.0,74,0.00,,,0.00,Wunderground v.1.15,2013-01-04 19:23:00,
2013-01-04 14:28:00,24.9,17.8,30.32,SSW,212,11.0,20.0,74,0.00,,,0.00,Wunderground v.1.15,2013-01-04 19:28:00,
2013-01-04 14:34:00,24.8,18.0,30.32,SW,220,12.0,23.0,75,0.00,,,0.00,Wunderground v.1.15,2013-01-04 19:34:00,
2013-01-04 14:40:00,24.8,18.0,30.32,NNE,18,13.0,13.0,75,0.00,,,0.00,Wunderground v.1.15,2013-01-04 19:40:00,
2013-01-04 14:46:00,24.8,18.0,30.32,SW,221,14.0,23.0,75,0.00,,,0.00,Wunderground v.1.15,2013-01-04 19:46:00,
2013-01-04 14:52:00,25.1,18.3,30.32,SW,226,12.0,23.0,75,0.00,,,0.00,Wunderground v.1.15,2013-01-04 19:52:00,
2013-01-04 14:58:00,25.2,18.4,30.32,ESE,111,11.0,23.0,75,0.00,,,0.00,Wunderground v.1.15,2013-01-04 19:58:00,
2013-01-04 15:03:00,25.3,18.5,30.32,SW,235,12.0,16.0,75,0.00,,,0.00,Wunderground v.1.15,2013-01-04 20:03:00,
2013-01-04 15:09:00,25.6,18.8,30.32,SW,219,11.0,16.0,75,0.00,,,0.00,Wunderground v.1.15,2013-01-04 20:09:00,
2013-01-04 15:14:00,25.7,18.9,30.32,SW,217,12.0,16.0,75,0.00,,,0.00,Wunderground v.1.15,2013-01-04 20:14:00,
2013-01-04 15:20:00,25.9,19.1,30.31,SW,219,11.0,11.0,75,0.00,,,0.00,Wunderground v.1.15,2013-01-04 20:20:00,
2013-01-04 15:26:00,26.1,19.3,30.32,South,191,10.0,16.0,75,0.00,,,0.00,Wunderground v.1.15,2013-01-04 20:26:00,
2013-01-04 15:32:00,26.1,19.3,30.32,SW,219,11.0,23.0,75,0.00,,,0.00,Wunderground v.1.15,2013-01-04 20:32:00,
2013-01-04 15:37:00,26.2,19.7,30.32,SW,225,11.0,23.0,76,0.00,,,0.00,Wunderground v.1.15,2013-01-04 20:37:00,
2013-01-04 15:43:00,26.3,19.8,30.32,WSW,238,11.0,23.0,76,0.00,,,0.00,Wunderground v.1.15,2013-01-04 20:43:00,
2013-01-04 15:49:00,26.5,20.0,30.31,SSW,205,11.0,23.0,76,0.00,,,0.00,Wunderground v.1.15,2013-01-04 20:49:00,
2013-01-04 15:55:00,26.5,20.0,30.31,SW,236,11.0,23.0,76,0.00,,,0.00,Wunderground v.1.15,2013-01-04 20:55:00,
2013-01-04 16:00:00,26.5,20.0,30.31,WSW,245,13.0,13.0,76,0.00,,,0.00,Wunderground v.1.15,2013-01-04 21:00:00,
2013-01-04 16:06:00,26.6,20.1,30.31,WSW,245,12.0,16.0,76,0.00,,,0.00,Wunderground v.1.15,2013-01-04 21:06:00,
2013-01-04 16:12:00,26.6,20.1,30.32,SW,228,11.0,15.0,76,0.00,,,0.00,Wunderground v.1.15,2013-01-04 21:12:00,
2013-01-04 16:17:00,26.6,20.1,30.32,WSW,238,12.0,20.0,76,0.00,,,0.00,Wunderground v.1.15,2013-01-04 21:17:00,
2013-01-04 16:23:00,26.6,20.1,30.32,WSW,240,11.0,15.0,76,0.00,,,0.00,Wunderground v.1.15,2013-01-04 21:23:00,
2013-01-04 16:29:00,26.6,20.1,30.32,WSW,245,10.0,16.0,76,0.00,,,0.00,Wunderground v.1.15,2013-01-04 21:29:00,
2013-01-04 16:35:00,26.5,20.0,30.32,SW,215,12.0,22.0,76,0.00,,,0.00,Wunderground v.1.15,2013-01-04 21:35:00,
2013-01-04 16:40:00,26.5,20.3,30.31,SW,229,13.0,22.0,77,0.00,,,0.00,Wunderground v.1.15,2013-01-04 21:40:00,
2013-01-04 16:46:00,26.5,20.3,30.31,SSW,204,12.0,22.0,77,0.00,,,0.00,Wunderground v.1.15,2013-01-04 21:46:00,
2013-01-04 16:52:00,26.5,20.3,30.31,SW,222,12.0,22.0,77,0.00,,,0.00,Wunderground v.1.15,2013-01-04 21:52:00,
2013-01-04 16:57:00,26.5,20.3,30.31,SW,222,11.0,22.0,77,0.00,,,0.00,Wunderground v.1.15,2013-01-04 21:57:00,
2013-01-04 17:03:00,26.5,20.6,30.31,SW,236,11.0,14.0,78,0.00,,,0.00,Wunderground v.1.15,2013-01-04 22:03:00,
2013-01-04 17:09:00,26.3,20.4,30.31,SW,230,11.0,14.0,78,0.00,,,0.00,Wunderground v.1.15,2013-01-04 22:09:00,
2013-01-04 17:14:00,26.2,20.3,30.31,SW,220,10.0,12.0,78,0.00,,,0.00,Wunderground v.1.15,2013-01-04 22:14:00,
2013-01-04 17:20:00,25.9,20.3,30.31,SW,231,11.0,12.0,79,0.00,,,0.00,Wunderground v.1.15,2013-01-04 22:20:00,
2013-01-04 17:25:00,25.7,20.1,30.31,SSW,192,12.0,15.0,79,0.00,,,0.00,Wunderground v.1.15,2013-01-04 22:25:00,
2013-01-04 17:31:00,25.6,20.3,30.31,SW,215,11.0,22.0,80,0.00,,,0.00,Wunderground v.1.15,2013-01-04 22:31:00,
2013-01-04 17:36:00,25.5,20.2,30.31,SW,218,12.0,22.0,80,0.00,,,0.00,Wunderground v.1.15,2013-01-04 22:36:00,
2013-01-04 17:42:00,25.5,20.2,30.31,West,268,12.0,22.0,80,0.00,,,0.00,Wunderground v.1.15,2013-01-04 22:42:00,
2013-01-04 17:47:00,25.5,20.5,30.31,SSW,207,12.0,22.0,81,0.00,,,0.00,Wunderground v.1.15,2013-01-04 22:47:00,
2013-01-04 17:53:00,25.6,20.6,30.31,SSW,212,12.0,22.0,81,0.00,,,0.00,Wunderground v.1.15,2013-01-04 22:53:00,
2013-01-04 17:59:00,25.7,20.7,30.32,WSW,238,12.0,22.0,81,0.00,,,0.00,Wunderground v.1.15,2013-01-04 22:59:00,
2013-01-04 18:05:00,25.6,20.6,30.32,WSW,240,11.0,12.0,81,0.00,,,0.00,Wunderground v.1.15,2013-01-04 23:05:00,
2013-01-04 18:11:00,25.5,20.5,30.32,SW,222,10.0,11.0,81,0.00,,,0.00,Wunderground v.1.15,2013-01-04 23:11:00,
2013-01-04 18:16:00,25.5,20.5,30.32,SW,215,11.0,13.0,81,0.00,,,0.00,Wunderground v.1.15,2013-01-04 23:16:00,
2013-01-04 18:22:00,25.4,20.4,30.32,SW,222,11.0,12.0,81,0.00,,,0.00,Wunderground v.1.15,2013-01-04 23:22:00,
2013-01-04 18:28:00,25.4,20.4,30.32,SW,215,10.0,14.0,81,0.00,,,0.00,Wunderground v.1.15,2013-01-04 23:28:00,
2013-01-04 18:34:00,25.4,20.7,30.32,WSW,238,9.0,19.0,82,0.00,,,0.00,Wunderground v.1.15,2013-01-04 23:34:00,
2013-01-04 18:39:00,25.4,20.4,30.32,SW,215,8.0,19.0,81,0.00,,,0.00,Wunderground v.1.15,2013-01-04 23:39:00,
2013-01-04 18:45:00,25.4,20.7,30.32,SSW,211,9.0,19.0,82,0.00,,,0.00,Wunderground v.1.15,2013-01-04 23:45:00,
2013-01-04 18:51:00,25.3,20.6,30.32,SSW,208,9.0,19.0,82,0.00,,,0.00,Wunderground v.1.15,2013-01-04 23:51:00,
2013-01-04 18:57:00,25.3,20.6,30.32,SW,221,9.0,19.0,82,0.00,,,0.00,Wunderground v.1.15,2013-01-04 23:57:00,
2013-01-04 19:02:00,25.3,20.6,30.33,SW,224,9.0,10.0,82,0.00,,,0.00,Wunderground v.1.15,2013-01-05 00:02:00,
2013-01-04 19:07:00,25.2,20.5,30.33,SW,229,8.0,10.0,82,0.00,,,0.00,Wunderground v.1.15,2013-01-05 00:07:00,
2013-01-04 19:13:00,25.1,20.4,30.33,WSW,242,7.0,10.0,82,0.00,,,0.00,Wunderground v.1.15,2013-01-05 00:13:00,
2013-01-04 19:19:00,25.1,20.4,30.33,SW,224,8.0,10.0,82,0.00,,,0.00,Wunderground v.1.15,2013-01-05 00:19:00,
2013-01-04 19:25:00,25.1,20.4,30.33,SSW,209,8.0,10.0,82,0.00,,,0.00,Wunderground v.1.15,2013-01-05 00:25:00,
2013-01-04 19:31:00,25.2,20.5,30.34,SW,219,8.0,17.0,82,0.00,,,0.00,Wunderground v.1.15,2013-01-05 00:31:00,
2013-01-04 19:37:00,25.1,20.4,30.34,SW,214,8.0,17.0,82,0.00,,,0.00,Wunderground v.1.15,2013-01-05 00:37:00,
2013-01-04 19:42:00,25.1,20.4,30.34,SW,218,8.0,17.0,82,0.00,,,0.00,Wunderground v.1.15,2013-01-05 00:42:00,
2013-01-04 19:48:00,25.1,20.4,30.34,WSW,240,8.0,17.0,82,0.00,,,0.00,Wunderground v.1.15,2013-01-05 00:48:00,
2013-01-04 19:54:00,25.1,20.4,30.34,SW,222,8.0,17.0,82,0.00,,,0.00,Wunderground v.1.15,2013-01-05 00:54:00,
2013-01-04 20:00:00,25.2,20.5,30.34,SSW,201,8.0,8.0,82,0.00,,,0.00,Wunderground v.1.15,2013-01-05 01:00:00,
2013-01-04 20:06:00,25.1,20.4,30.34,SSW,212,7.0,10.0,82,0.00,,,0.00,Wunderground v.1.15,2013-01-05 01:06:00,
2013-01-04 20:12:00,24.9,20.2,30.34,SW,226,7.0,7.0,82,0.00,,,0.00,Wunderground v.1.15,2013-01-05 01:12:00,
2013-01-04 20:18:00,24.8,20.1,30.34,SW,235,6.0,9.0,82,0.00,,,0.00,Wunderground v.1.15,2013-01-05 01:18:00,
2013-01-04 20:24:00,24.5,19.8,30.34,SW,226,6.0,8.0,82,0.00,,,0.00,Wunderground v.1.15,2013-01-05 01:24:00,
2013-01-04 20:29:00,24.4,19.7,30.34,SSW,203,6.0,8.0,82,0.00,,,0.00,Wunderground v.1.15,2013-01-05 01:29:00,
2013-01-04 20:35:00,24.4,19.7,30.34,SSW,194,7.0,14.0,82,0.00,,,0.00,Wunderground v.1.15,2013-01-05 01:35:00,
2013-01-04 20:41:00,24.5,19.8,30.34,SW,216,8.0,14.0,82,0.00,,,0.00,Wunderground v.1.15,2013-01-05 01:41:00,
2013-01-04 20:47:00,24.5,19.8,30.34,SW,220,7.0,14.0,82,0.00,,,0.00,Wunderground v.1.15,2013-01-05 01:47:00,
2013-01-04 20:53:00,24.5,19.5,30.34,WSW,245,8.0,14.0,81,0.00,,,0.00,Wunderground v.1.15,2013-01-05 01:53:00,
2013-01-04 20:58:00,24.6,19.6,30.34,SW,224,9.0,14.0,81,0.00,,,0.00,Wunderground v.1.15,2013-01-05 01:58:00,
2013-01-04 21:04:00,24.6,19.6,30.34,SW,218,9.0,11.0,81,0.00,,,0.00,Wunderground v.1.15,2013-01-05 02:04:00,
2013-01-04 21:10:00,24.6,19.6,30.34,SW,221,8.0,8.0,81,0.00,,,0.00,Wunderground v.1.15,2013-01-05 02:10:00,
2013-01-04 21:16:00,24.4,19.4,30.34,SW,228,8.0,8.0,81,0.00,,,0.00,Wunderground v.1.15,2013-01-05 02:16:00,
2013-01-04 21:21:00,24.4,19.4,30.34,SW,228,8.0,8.0,81,0.00,,,0.00,Wunderground v.1.15,2013-01-05 02:21:00,
2013-01-04 21:27:00,24.3,19.3,30.34,SW,218,8.0,10.0,81,0.00,,,0.00,Wunderground v.1.15,2013-01-05 02:27:00,
2013-01-04 21:33:00,24.2,19.5,30.34,SSW,211,8.0,13.0,82,0.00,,,0.00,Wunderground v.1.15,2013-01-05 02:33:00,
2013-01-04 21:39:00,24.0,19.0,30.34,WSW,238,7.0,13.0,81,0.00,,,0.00,Wunderground v.1.15,2013-01-05 02:39:00,
2013-01-04 21:44:00,24.0,19.3,30.35,SSW,212,6.0,13.0,82,0.00,,,0.00,Wunderground v.1.15,2013-01-05 02:44:00,
2013-01-04 21:50:00,23.8,19.1,30.35,WSW,250,6.0,13.0,82,0.00,,,0.00,Wunderground v.1.15,2013-01-05 02:50:00,
2013-01-04 21:56:00,23.7,19.0,30.34,SSW,193,6.0,13.0,82,0.00,,,0.00,Wunderground v.1.15,2013-01-05 02:56:00,
2013-01-04 22:02:00,23.7,19.0,30.35,WSW,241,6.0,6.0,82,0.00,,,0.00,Wunderground v.1.15,2013-01-05 03:02:00,
2013-01-04 22:07:00,23.6,18.9,30.35,SW,231,6.0,8.0,82,0.00,,,0.00,Wunderground v.1.15,2013-01-05 03:07:00,
2013-01-04 22:13:00,23.6,18.9,30.35,SW,217,6.0,8.0,82,0.00,,,0.00,Wunderground v.1.15,2013-01-05 03:13:00,
2013-01-04 22:19:00,23.5,18.8,30.35,SW,224,6.0,8.0,82,0.00,,,0.00,Wunderground v.1.15,2013-01-05 03:19:00,
2013-01-04 22:24:00,23.3,18.6,30.35,SW,226,5.0,7.0,82,0.00,,,0.00,Wunderground v.1.15,2013-01-05 03:24:00,
2013-01-04 22:30:00,23.1,18.4,30.35,SW,228,4.0,6.0,82,0.00,,,0.00,Wunderground v.1.15,2013-01-05 03:30:00,
2013-01-04 22:36:00,23.0,18.3,30.35,WSW,238,5.0,14.0,82,0.00,,,0.00,Wunderground v.1.15,2013-01-05 03:36:00,
2013-01-04 22:42:00,22.9,18.2,30.35,SW,215,5.0,14.0,82,0.00,,,0.00,Wunderground v.1.15,2013-01-05 03:42:00,
2013-01-04 22:48:00,22.7,18.3,30.35,SW,224,5.0,14.0,83,0.00,,,0.00,Wunderground v.1.15,2013-01-05 03:48:00,
2013-01-04 22:53:00,22.6,18.2,30.35,SW,218,5.0,14.0,83,0.00,,,0.00,Wunderground v.1.15,2013-01-05 03:53:00,
2013-01-04 22:59:00,22.6,18.2,30.36,SW,219,5.0,14.0,83,0.00,,,0.00,Wunderground v.1.15,2013-01-05 03:59:00,
2013-01-04 23:05:00,22.4,18.0,30.36,SW,218,5.0,7.0,83,0.00,,,0.00,Wunderground v.1.15,2013-01-05 04:05:00,
2013-01-04 23:10:00,22.3,18.2,30.36,SSW,210,5.0,5.0,84,0.00,,,0.00,Wunderground v.1.15,2013-01-05 04:10:00,
2013-01-04 23:16:00,22.1,17.7,30.36,SSW,208,5.0,5.0,83,0.00,,,0.00,Wunderground v.1.15,2013-01-05 04:16:00,
2013-01-04 23:22:00,22.0,17.9,30.36,SW,231,5.0,7.0,84,0.00,,,0.00,Wunderground v.1.15,2013-01-05 04:22:00,
2013-01-04 23:28:00,22.0,17.9,30.36,SSW,211,5.0,7.0,84,0.00,,,0.00,Wunderground v.1.15,2013-01-05 04:28:00,
2013-01-04 23:34:00,22.0,17.9,30.36,SW,215,6.0,11.0,84,0.00,,,0.00,Wunderground v.1.15,2013-01-05 04:34:00,
2013-01-04 23:39:00,22.1,18.0,30.36,SW,228,6.0,11.0,84,0.00,,,0.00,Wunderground v.1.15,2013-01-05 04:39:00,
2013-01-04 23:45:00,22.1,18.0,30.36,SW,235,6.0,11.0,84,0.00,,,0.00,Wunderground v.1.15,2013-01-05 04:45:00,
2013-01-04 23:51:00,22.0,17.9,30.36,SW,215,5.0,11.0,84,0.00,,,0.00,Wunderground v.1.15,2013-01-05 04:51:00,
2013-01-04 23:57:00,22.0,17.9,30.36,SSW,205,6.0,11.0,84,0.00,,,0.00,Wunderground v.1.15,2013-01-05 04:57:00,